Location: Observatorio Las Palmas
(29.0667°N, 110.9333°W)
Time: 04:12:27
(UTC-07:00)

Hubble Space Telescope - Visible Passes

Search period start: 02 March 2015 00:00
Search period end: 12 March 2015 00:00
Orbit: 543 x 548 km, 28.5° (Epoch: 01 March)

Date Brightness Start Highest point End Pass type
(mag) Time Alt. Az. Time Alt. Az. Time Alt. Az.
02 Mar 0.8 05:03:11 76° ESE 05:03:11 76° ESE 05:07:04 10° E visible
03 Mar 1.2 04:55:27 59° ESE 04:55:27 59° ESE 04:58:54 10° E visible
04 Mar 1.7 04:47:45 45° ESE 04:47:45 45° ESE 04:50:43 10° ESE visible
05 Mar 2.3 04:40:04 33° ESE 04:40:04 33° ESE 04:42:30 10° ESE visible
05 Mar 2.0 06:15:52 10° W 06:19:30 29° SSW 06:23:06 10° SE visible
06 Mar 2.8 04:32:26 24° ESE 04:32:26 24° ESE 04:34:15 10° ESE visible
06 Mar 2.3 06:07:56 10° WSW 06:11:14 23° SSW 06:14:31 10° SSE visible
07 Mar 3.3 04:24:52 17° ESE 04:24:52 17° ESE 04:25:57 10° ESE visible
07 Mar 2.6 06:00:22 11° WSW 06:02:56 18° SSW 06:05:44 10° SSE visible
08 Mar 3.7 04:17:21 11° SE 04:17:21 11° SE 04:17:37 10° SE visible
08 Mar 2.9 05:52:51 11° SW 05:54:38 13° SSW 05:56:40 10° S visible
